#timestamp,LO_Frequency,Hit 
1504062015.5,286046998.4,N
1504062035.3,286047002.4,N
1504062055.2,286047003.5,N
1504062075.9,286047007.2,N
1504062095.7,286047004.9,N
1504062115.6,286047005.2,N
1504062135.4,286047005.5,N
1504062155.2,286047007.3,N
1504062175.1,286047007.7,N
1504062176.0,286047007.7,N
1504062195.8,286047012.1,N
1504062215.6,286047013.7,N
1504062235.5,286047009.8,N
1504062255.3,286047010.7,N
1504062275.1,286047008.0,N
1504062295.9,286047008.9,N
1504062315.7,286047007.3,N
1504062335.5,286047006.5,N
1504062355.3,286047010.4,N
1504062375.2,286047006.7,N
1504062395.0,286047005.5,N
1504062395.9,286047005.5,N
1504062415.7,286047005.8,N
1504062435.6,286047005.2,N
1504062455.4,286047007.2,N
1504062475.2,286047005.3,N
1504062495.1,286047005.8,N
1504062496.0,286047005.8,N
1504062515.8,286047003.4,N
1504062535.6,286047005.1,N
1504062555.5,286047006.9,N
1504062575.3,286047008.6,P
1504062595.1,286047001.0,N
1504062615.9,286047000.9,N
1504062635.7,286047002.1,N
1504062655.5,286046999.9,N
1504062675.4,286046999.0,N
1504062695.2,286047000.8,N
1504062715.0,286046999.4,N
1504062715.9,286046999.4,N
1504062735.8,286046998.8,N
1504062755.6,286046997.3,N
1504062775.4,286046999.2,N
1504062795.3,286047001.2,N
1504062815.1,286047002.3,N
1504062816.0,286047002.3,N
1504062835.8,286047004.3,N
1504062855.7,286047003.7,N
1504062875.5,286047002.6,N
1504062895.3,286047000.3,N
1504062915.2,286047000.7,N
1504062935.9,286047002.0,N
1504062955.7,286047003.9,N
1504062975.5,286047002.6,N
1504062995.4,286047002.7,N
1504063015.2,286046999.7,N
1504063035.0,286047000.7,N
1504063035.9,286047000.7,N
1504063055.8,286047004.3,N
1504063075.6,286047004.4,N
1504063095.4,286046999.4,N
1504063115.3,286046999.0,N
1504063135.1,286046999.1,N
1504063155.8,286046998.5,N
1504063175.7,286047001.9,N
1504063195.5,286047002.6,N
1504063215.3,286047004.0,N
1504063235.2,286047005.3,N
1504063255.9,286047005.6,N
1504063275.7,286047007.6,P
1504063295.6,286047003.6,N
1504063315.4,286047003.3,N
1504063335.2,286047001.6,N
1504063355.1,286047006.6,N
1504063356.0,286047006.6,N
1504063375.8,286047006.0,N
1504063395.6,286047002.0,N
1504063415.5,286047001.4,N
1504063435.3,286047001.6,N
1504063455.1,286047003.0,N
1504063475.9,286047003.3,N
1504063495.7,286047003.5,N
1504063515.5,286047002.8,N
1504063535.3,286047001.2,N
1504063555.2,286047000.6,N
1504063575.0,286047001.2,N
1504063575.9,286047001.2,N
1504063595.7,286046996.5,N
1504063615.6,286046996.6,N
1504063635.4,286046995.6,N
1504063655.2,286046991.7,N
1504063675.1,286046990.5,N
1504063676.0,286046990.5,N
1504063695.8,286046990.4,N
1504063715.6,286046992.8,N
1504063735.5,286046991.0,N
1504063755.3,286046985.8,N
1504063775.1,286046986.1,N
1504063795.9,286046988.2,N
1504063815.7,286046987.6,N
1504063835.5,286046988.1,N
1504063855.4,286046989.7,N
1504063875.2,286046992.1,N
1504063895.0,286046991.8,N
1504063895.9,286046991.8,N
1504063915.8,286046992.8,N
1504063935.6,286046992.9,N
1504063955.4,286046991.9,N
1504063975.2,286046992.1,N
1504063995.1,286046994.4,N
1504063996.0,286046994.4,N
1504064015.8,286046994.3,N
1504064035.6,286046994.8,N
1504064055.5,286046995.9,N
1504064075.3,286046992.9,N
1504064095.1,286046996.4,N
1504064115.9,286046997.7,N
1504064135.7,286046994.9,N
1504064155.5,286046994.1,N
1504064175.4,286046997.7,N
1504064195.2,286046997.7,N
1504064215.0,286046998.7,N
1504064215.9,286046998.7,N
1504064235.8,286046998.8,N
1504064255.6,286046999.3,N
1504064275.4,286046998.4,N
1504064295.3,286046997.5,N
1504064315.1,286046997.9,N
1504064316.0,286046997.9,N
1504064335.8,286046997.8,N
1504064355.7,286046996.8,N
1504064375.5,286047000.6,N
1504064395.3,286046999.8,N
1504064415.2,286046999.1,N
1504064435.9,286047001.0,N
1504064455.7,286047000.5,N
1504064475.6,286047000.4,N
1504064495.4,286046998.4,N
1504064515.2,286047000.8,N
1504064535.0,286047001.9,N
1504064536.0,286047001.9,N
1504064555.8,286047003.3,N
1504064575.6,286047005.7,N
1504064595.5,286047009.2,P
1504064615.3,286047008.4,N
1504064635.1,286047008.6,N
1504064655.9,286047008.8,N
1504064675.7,286047009.1,N
1504064695.5,286047011.8,P
1504064715.4,286047003.6,N
1504064735.2,286047005.5,N
1504064755.0,286047001.0,N
1504064755.9,286047001.0,N
1504064775.8,286046999.4,N
1504064795.6,286047001.1,N
1504064815.4,286047002.6,N
1504064835.2,286047004.0,N
1504064855.1,286047003.1,N
1504064856.0,286047003.1,N
1504064875.8,286047004.2,N
1504064895.6,286047002.8,N
1504064915.5,286047000.4,N
1504064935.3,286046997.1,N
1504064955.1,286047001.1,N
1504064975.9,286047000.5,N
1504064995.7,286047000.7,N
1504065015.5,286047002.1,N
1504065035.4,286047005.8,N
1504065055.2,286047000.6,N
1504065075.0,286047001.5,N
1504065075.9,286047001.5,N
1504065095.8,286047003.9,N
1504065115.6,286047002.5,N
1504065135.4,286047002.3,N
1504065155.3,286047002.8,N
1504065175.1,286047002.0,N
1504065176.0,286047002.0,N
1504065195.8,286046999.9,N
1504065215.7,286047002.4,N
1504065235.5,286047001.9,N
1504065255.3,286047002.3,N
1504065275.1,286047002.4,N
1504065295.9,286047004.7,N
1504065315.7,286047003.9,N
1504065335.5,286047004.8,N
1504065355.4,286047008.5,P
1504065375.2,286047005.8,N
1504065395.1,286047007.4,N
1504065396.0,286047007.4,P
1504065415.8,286047000.3,N
1504065435.6,286046998.8,N
1504065455.5,286046997.1,N
1504065475.3,286046998.1,N
1504065495.1,286046998.9,N
1504065515.9,286047001.1,N
1504065535.7,286047000.7,N
1504065555.5,286047002.4,N
1504065575.4,286047002.7,N
1504065595.2,286046997.0,N
